Etusivu
METAR-TAF:

METAR-TAF

Lentoasemat :

Perryton Ochiltree County Airport

Perryton, Texas, Yhdysvallat

Leveyspiiri: 36-24N, Pituuspiiri: 100-44W, korkeus merenpinnasta: 890 m

Tämänhetkinen sää

Tämä raportti tehtiin 14 minuuttia sitten, kello 12.15 UTC
Tuuli 15 kn etelästä
Lämpötila 10°C
Kosteus 82%
Ilmanpaine 1008 hPa
Näkyvyys: 16.1 km
selkeää

METAR: KPYX 011215Z AUTO 18015KT 10SM CLR 10/07 A2978 RMK AO2 T00950070

Aika: 07:29 (12:29 UTC)


TAF: puuttuu

Säähavainnot ja -ennusteet yli 4000 lentoasemalta (METAR- ja TAF-raportit).

Käytössä olevat sääasemat on merkitty karttaan keltaisilla ja punaisilla pisteillä.

Aseta hiiri pisteen päälle nähdäksesi sääaseman nimen.

Klikkaa sitten nähdäksesi säähavainnot ja -ennusteet.

Kartan vaihtaminen: klikkaa mustalla rastilla varustettuja vihreitä pisteitä, niin voit zoomata sisään; viivalla varustettua vihreää pistettä, niin voit zoomata ulos tai vihreitä nuolia, niin pääset viereisille kartoille.


METAR-TAF: